Appleton, WI

12:52 AM CDT on April 24, 2018 (GMT -0500)
Outagamie County Regional

Weather History for KATW - April, 2013

Change the Weather History Date:

Thursday, April 18, 2013

  Actual Average Record
Temperature  
Mean Temperature 40 °F -  
Max Temperature 46 °F 57 °F 82 °F (1987)
Min Temperature 35 °F 36 °F 22 °F (1983)
Degree Days  
Heating Degree Days 24    
Moisture  
Dew Point 38 °F    
Average Humidity 98    
Maximum Humidity 100    
Minimum Humidity 87    
Precipitation  
Precipitation 0.05 in - - ()
Sea Level Pressure  
Sea Level Pressure 29.60 in    
Wind  
Wind Speed 11 mph (ENE)    
Max Wind Speed 26 mph    
Max Gust Speed 36 mph    
Visibility 4 miles    
Events Fog , Rain    
Averages and records for this station are not official NWS values.
T = Trace of Precipitation, MM = Missing Value Source: NWS Daily Summary

Daily Weather History Graph

Daily Weather History Graph

Search for Another Location

Airport or City:

Astronomy

Apr. 18, 2013 Rise Set
Actual Time 6:05 AM CDT 7:42 PM CDT
Civil Twilight 5:34 AM CDT 8:13 PM CDT
Nautical Twilight 4:57 AM CDT 8:50 PM CDT
Astronomical Twilight 4:17 AM CDT 9:30 PM CDT
Moon 12:14 PM CDT (4/18) 1:59 AM CDT (4/18)
Length of Visible Light 14h 38m
Length of Day
13h 37m
First Quarter, 52% of the Moon is Illuminated
Apr 18
First Quarter
Apr 25
Full
May 2
Last Quarter
May 9
New
May 17
First Quarter

Hourly Weather History & Observations

Time (CDT) Temp. Windchill Dew Point Humidity Pressure Visibility Wind Dir Wind Speed Gust Speed Precip Events Conditions
12:15 AM 37.4 °F 30.8 °F 37.4 °F 100% 29.92 in 4.0 mi East 9.2 mph - N/A Rain Light Rain
12:35 AM 37.4 °F 31.4 °F 37.4 °F 100% 29.90 in 4.0 mi East 8.1 mph - 0.01 in Rain Light Rain
12:55 AM 37.4 °F 30.3 °F 37.4 °F 100% 29.88 in 5.0 mi ENE 10.4 mph - 0.03 in Rain Light Rain
1:15 AM 37.4 °F 30.8 °F 35.6 °F 93% 29.87 in 7.0 mi ENE 9.2 mph - 0.01 in   Drizzle
1:35 AM 37.4 °F 31.4 °F 35.6 °F 93% 29.85 in 7.0 mi ENE 8.1 mph - 0.01 in Rain Light Rain
1:55 AM 35.6 °F 28.0 °F 35.6 °F 100% 29.82 in 7.0 mi ENE 10.4 mph 17.3 mph 0.01 in Rain Rain
2:15 AM 35.6 °F 25.5 °F 35.6 °F 100% 29.78 in 5.0 mi ENE 17.3 mph - 0.01 in Rain Light Rain
2:35 AM 35.6 °F 25.9 °F 35.6 °F 100% 29.74 in 7.0 mi East 16.1 mph 23.0 mph 0.01 in Rain Light Rain
2:55 AM 35.6 °F 28.0 °F 35.6 °F 100% 29.74 in 5.0 mi ENE 10.4 mph 25.3 mph 0.01 in   Overcast
3:15 AM 35.6 °F 27.1 °F 35.6 °F 100% 29.74 in 5.0 mi ENE 12.7 mph 19.6 mph N/A   Overcast
3:35 AM 35.6 °F 27.1 °F 35.6 °F 100% 29.74 in 5.0 mi ENE 12.7 mph - N/A   Overcast
3:55 AM 37.4 °F 30.8 °F 37.4 °F 100% 29.74 in 5.0 mi NE 9.2 mph - N/A Rain Light Rain
4:15 AM 35.6 °F 28.6 °F 35.6 °F 100% 29.74 in 4.0 mi NE 9.2 mph - N/A Rain Rain
4:35 AM 37.4 °F 30.8 °F 37.4 °F 100% 29.73 in 2.5 mi NE 9.2 mph - N/A   Overcast
4:55 AM 35.6 °F 28.0 °F 35.6 °F 100% 29.70 in 0.8 mi ENE 10.4 mph - N/A   Overcast
5:15 AM 35.6 °F 28.0 °F 35.6 °F 100% 29.69 in 0.5 mi NE 10.4 mph - N/A Fog Fog
5:45 AM 37.4 °F 29.8 °F 37.4 °F 100% 29.67 in 0.5 mi ENE 11.5 mph 17.3 mph N/A Fog Fog
6:45 AM 35.6 °F 27.5 °F 35.6 °F 100% 29.65 in 0.2 mi NE 11.5 mph 17.3 mph N/A Fog Fog
7:05 AM 35.6 °F 27.5 °F 35.6 °F 100% 29.66 in 0.5 mi ENE 11.5 mph 17.3 mph N/A Fog Fog
7:20 AM 35.6 °F 29.2 °F 35.6 °F 100% 29.68 in 1.0 mi NE 8.1 mph - N/A   Mist
7:45 AM 37.4 °F 28.9 °F 37.4 °F 100% 29.64 in 1.0 mi NE 13.8 mph - N/A   Mist
8:05 AM 35.6 °F 28.0 °F 35.6 °F 100% 29.64 in 2.0 mi NE 10.4 mph - N/A Rain Light Rain
8:45 AM 37.4 °F 30.8 °F 37.4 °F 100% 29.62 in 4.0 mi NNE 9.2 mph - N/A Rain Light Rain
9:45 AM 35.6 °F 27.5 °F 35.6 °F 100% 29.61 in 4.0 mi NNE 11.5 mph - N/A Rain Light Rain
10:30 AM 37.4 °F 31.4 °F 37.4 °F 100% 29.61 in 7.0 mi NE 8.1 mph - N/A   Light Drizzle
10:53 AM 37.4 °F 32.1 °F 37.4 °F 100% 29.60 in 10.0 mi NNE 6.9 mph - N/A   Overcast
11:21 AM 37.4 °F 29.3 °F 37.4 °F 100% 29.54 in 5.0 mi ENE 12.7 mph - N/A   Overcast
11:45 AM 39.2 °F 32.0 °F 37.4 °F 93% 29.52 in 5.0 mi NE 11.5 mph - N/A   Overcast
12:45 PM 39.2 °F 35.0 °F 39.2 °F 100% 29.58 in 5.0 mi NE 5.8 mph - N/A   Overcast
1:45 PM 39.2 °F 34.2 °F 39.2 °F 100% 29.58 in 3.0 mi North 6.9 mph - N/A   Overcast
2:12 PM 39.2 °F 33.6 °F 39.2 °F 100% 29.56 in 1.0 mi NE 8.1 mph - N/A   Overcast
2:45 PM 39.2 °F 33.6 °F 39.2 °F 100% 29.54 in 1.0 mi NNE 8.1 mph - N/A   Overcast
3:45 PM 39.2 °F 32.0 °F 39.2 °F 100% 29.51 in 0.5 mi NNE 11.5 mph - N/A   Mist
4:45 PM 39.2 °F 31.2 °F 39.2 °F 100% 29.47 in 1.0 mi ENE 13.8 mph - N/A   Mist
5:45 PM 39.2 °F 30.5 °F 39.2 °F 100% 29.45 in 1.0 mi ENE 16.1 mph - N/A   Mist
6:45 PM 39.2 °F 29.8 °F 39.2 °F 100% 29.38 in 1.0 mi ENE 18.4 mph 23.0 mph N/A   Mist
7:45 PM 41.0 °F 34.7 °F 41.0 °F 100% 29.33 in 0.8 mi East 10.4 mph - N/A   Light Drizzle
8:45 PM 42.8 °F 38.0 °F 42.8 °F 100% 29.31 in 5.0 mi East 8.1 mph - N/A   Mist
9:45 PM 46.4 °F 39.0 °F 46.4 °F 100% 29.30 in 4.0 mi SSW 19.6 mph 28.8 mph N/A   Light Drizzle
10:45 PM 44.6 °F 35.3 °F 42.8 °F 93% 29.29 in 6.0 mi SW 26.5 mph 35.7 mph N/A   Overcast
10:55 PM 42.8 °F 33.5 °F 41.0 °F 93% 29.30 in 10.0 mi SW 23.0 mph 31.1 mph N/A   Overcast
11:15 PM 42.8 °F 34.0 °F 39.2 °F 87% 29.29 in 10.0 mi WSW 20.7 mph 27.6 mph N/A   Overcast
11:35 PM 41.0 °F 31.9 °F 37.4 °F 87% 29.30 in 10.0 mi SW 19.6 mph 28.8 mph N/A   Overcast
11:55 PM 41.0 °F 31.6 °F 37.4 °F 87% 29.30 in 10.0 mi SW 20.7 mph 27.6 mph N/A   Overcast